DW5978 Whyalla SA AU current weather conditions

sailwx.info

Wind from 197 at 6 knots gusting 14

Air temperature 20.6° C
Dewpoint 12.8° C

Last reported at 2014-Dec-19 09:41 UTC.
Time now 2014-Dec-19 10:49 UTC

Location: S 33°01' E 137°32'.
View on Google Maps.

See reports from other nearby stations

  
Tides and Currents Weather Stations Pressure Air Temp Water Temp Dewpoint Dewpoint Depression Visibility Wind Speed Wind Dir Waves Ship Positions
date/time (UTC)wind fromknots sea level pressurealtimeterstation pressurevisibilityair tempwater tempwave heightnotes
2014-Dec-19 09:41 197 6 gusting 14 20.6
2014-Dec-19 09:26 174 7 gusting 13 20.6
2014-Dec-19 09:11 132 7 gusting 15 21.1
2014-Dec-19 08:56 193 6 gusting 16 21.1
2014-Dec-19 08:41 155 6 gusting 14 21.7
2014-Dec-19 08:26 112 9 gusting 17 21.7
2014-Dec-19 08:10 162 7 gusting 18 21.7
2014-Dec-19 07:55 143 7 gusting 15 22.2
2014-Dec-19 07:40 162 8 gusting 14 22.2
2014-Dec-19 07:25 148 7 gusting 15 22.8
2014-Dec-19 07:11 181 8 gusting 14 22.8
2014-Dec-19 06:56 122 8 gusting 13 23.3
2014-Dec-19 06:44 212 8 gusting 14 23.3
2014-Dec-19 06:24 161 6 gusting 14 23.3
2014-Dec-19 06:10 148 8 gusting 13 23.3
2014-Dec-19 04:16 158 6 gusting 10 22.8
2014-Dec-19 04:01 143 7 gusting 13 22.2
2014-Dec-19 03:46 204 6 gusting 11 22.2
2014-Dec-19 03:31 204 4 gusting 12 21.7
2014-Dec-19 03:16 150 5 gusting 10 21.7
2014-Dec-19 03:01 160 6 gusting 14 21.7
2014-Dec-19 02:46 123 6 gusting 14 21.7
2014-Dec-19 02:31 150 7 gusting 14 20.6
2014-Dec-19 02:16 162 7 gusting 16 20.6
2014-Dec-19 02:01 145 4 gusting 13 20.6
2014-Dec-19 01:46 183 4 gusting 8 20.6
2014-Dec-19 01:31 174 6 gusting 13 20.0
2014-Dec-19 01:16 135 5 gusting 11 20.0
2014-Dec-19 01:00 120 6 gusting 10 20.0
2014-Dec-19 00:45 136 4 gusting 9 19.4
2014-Dec-19 00:30 120 5 gusting 10 19.4
2014-Dec-19 00:15 145 4 gusting 9 19.4
2014-Dec-19 00:00 103 3 gusting 10 19.4
2014-Dec-18 23:45 123 3 gusting 9 19.4
2014-Dec-18 23:30 153 3 gusting 9 18.9
2014-Dec-18 23:15 192 3 gusting 8 18.9
2014-Dec-18 23:00 103 5 gusting 9 18.9
2014-Dec-18 22:45 150 5 gusting 10 18.3
2014-Dec-18 22:30 130 3 gusting 9 18.3
2014-Dec-18 22:15 145 6 gusting 9 18.3
2014-Dec-18 22:00 105 5 gusting 8 18.3
2014-Dec-18 21:45 150 4 gusting 9 17.8
2014-Dec-18 21:30 131 6 gusting 11 17.8
2014-Dec-18 21:15 134 5 gusting 10 17.2
2014-Dec-18 21:00 176 4 gusting 10 17.2
2014-Dec-18 20:45 156 5 gusting 10 17.2
2014-Dec-18 20:30
2014-Dec-18 20:15
2014-Dec-18 20:00
2014-Dec-18 19:45 176 3 gusting 7 16.1
2014-Dec-18 19:30 148 3 gusting 6 16.1
2014-Dec-18 19:15 145 0 gusting 4 16.1
2014-Dec-18 19:00 109 2 gusting 7 16.7
2014-Dec-18 18:45 148 4 gusting 8 16.7
2014-Dec-18 18:30 156 4 gusting 10 16.7
2014-Dec-18 18:15 190 3 gusting 6 16.7
2014-Dec-18 18:00 153 3 gusting 8 16.7
2014-Dec-18 17:44 148 3 gusting 8 16.7
2014-Dec-18 17:29 133 4 gusting 9 16.7
2014-Dec-18 17:14 131 3 gusting 7 16.7
2014-Dec-18 16:59 162 3 gusting 8 16.7
2014-Dec-18 16:44 156 4 gusting 9 16.7
2014-Dec-18 16:29 160 4 gusting 10 17.2
2014-Dec-18 16:14 141 5 gusting 9 17.2
2014-Dec-18 15:59 186 3 gusting 7 17.2
2014-Dec-18 15:44 187 4 gusting 9 17.2
2014-Dec-18 15:29 142 6 gusting 12 17.2
2014-Dec-18 15:14 207 3 gusting 9 17.2
2014-Dec-18 14:59 195 5 gusting 13 17.8
2014-Dec-18 14:44 167 6 gusting 10 17.8
2014-Dec-18 14:29 181 4 gusting 8 17.2
2014-Dec-18 14:14 192 2 gusting 7 17.8
2014-Dec-18 13:59 160 5 gusting 8 17.8
2014-Dec-18 13:44 174 4 gusting 10 17.8
2014-Dec-18 13:29 195 4 gusting 12 17.8
2014-Dec-18 13:14 198 6 gusting 12 18.3
2014-Dec-18 12:59 165 5 gusting 13 18.3
2014-Dec-18 12:44 172 6 gusting 13 18.3
2014-Dec-18 12:29 184 6 gusting 13 18.3
2014-Dec-18 12:14 162 6 gusting 13 18.3
2014-Dec-18 11:59 174 6 gusting 13 18.3
2014-Dec-18 11:44 214 6 gusting 13 18.3
2014-Dec-18 11:29 170 6 gusting 13 18.3
2014-Dec-18 11:14 184 7 gusting 13 18.9
2014-Dec-18 10:59 246 9 gusting 14 18.9
2014-Dec-18 10:44 195 5 gusting 13 18.9
2014-Dec-18 10:29 207 7 gusting 15 18.9
2014-Dec-18 10:14 188 6 gusting 14 18.9
2014-Dec-18 09:59 177 10 gusting 16 18.9
2014-Dec-18 09:44 141 7 gusting 16 19.4
2014-Dec-18 09:29 183 6 gusting 14 20.0
2014-Dec-18 09:14 170 6 gusting 18 20.0
2014-Dec-18 09:00 148 6 gusting 19 20.0
2014-Dec-18 08:44 215 7 gusting 19 20.6
2014-Dec-18 08:29 153 9 gusting 17 20.6
2014-Dec-18 08:13 187 9 gusting 19 20.6
2014-Dec-18 07:59 169 7 gusting 19 21.1
2014-Dec-18 07:44 193 11 gusting 19 21.1
2014-Dec-18 07:29 125 6 gusting 19 21.7
2014-Dec-18 07:15 141 6 gusting 20 21.7
2014-Dec-18 06:59 173 11 gusting 19 21.7
2014-Dec-18 06:44 141 8 gusting 19 22.2
2014-Dec-18 05:44 124 7 gusting 18 22.8
2014-Dec-18 05:29 133 6 gusting 15 22.8
2014-Dec-18 05:14 143 6 gusting 18 22.2
2014-Dec-18 04:59 150 6 gusting 17 22.8
2014-Dec-18 04:44 156 6 gusting 13 22.8
2014-Dec-18 04:28 148 8 gusting 13 22.8
2014-Dec-18 04:13 114 6 gusting 12 23.3
2014-Dec-18 03:58 142 7 gusting 13 23.3
2014-Dec-18 03:43 188 6 gusting 13 23.3
2014-Dec-18 03:28 170 7 gusting 13 22.8
2014-Dec-18 03:13 148 6 gusting 13 22.8
2014-Dec-18 02:58 123 6 gusting 13 22.2
2014-Dec-18 02:43 177 7 gusting 15 22.2
2014-Dec-18 02:28 138 6 gusting 13 22.8
2014-Dec-18 02:13 201 8 gusting 14 22.8
2014-Dec-18 01:58 162 8 gusting 13 22.8
2014-Dec-18 01:43 159 6 gusting 13 22.8
2014-Dec-18 01:28 148 6 gusting 13 22.8
2014-Dec-18 01:13 140 6 gusting 12 23.3
2014-Dec-18 00:58 150 5 gusting 11 22.8
2014-Dec-18 00:43 120 4 gusting 6 22.8
2014-Dec-18 00:28 108 4 gusting 8 22.2
2014-Dec-18 00:13 181 3 gusting 10 22.2
2014-Dec-17 23:58 114 3 gusting 7 21.7
2014-Dec-17 23:43 117 3 gusting 7 21.1
2014-Dec-17 23:28 136 1 gusting 11 21.1
2014-Dec-17 23:13 218 3 gusting 7 20.6
2014-Dec-17 22:58 252 4 gusting 11 20.0
2014-Dec-17 22:43 129 4 gusting 9 20.0
2014-Dec-17 22:28 190 3 gusting 7 19.4
2014-Dec-17 22:13 213 4 gusting 11 19.4
2014-Dec-17 21:58 183 4 gusting 9 18.9
2014-Dec-17 21:43 212 5 gusting 8 18.3
2014-Dec-17 21:13 223 4 gusting 6 17.2
2014-Dec-17 20:57 229 2 gusting 7 16.1
2014-Dec-17 20:42
2014-Dec-17 20:27
2014-Dec-17 20:12
2014-Dec-17 19:57
2014-Dec-17 19:42
2014-Dec-17 19:27 307 12.2
2014-Dec-17 19:12 307 12.2
2014-Dec-17 18:57 307 12.8
2014-Dec-17 18:42 307 12.8
2014-Dec-17 18:27 307 0 gusting 1 13.3
2014-Dec-17 18:12 308 13.3
2014-Dec-17 17:57 255 13.3
2014-Dec-17 17:42 255 13.9
2014-Dec-17 17:27 252 0 gusting 2 14.4
2014-Dec-17 17:12 252 0 gusting 3 15.0
2014-Dec-17 16:57 252 2 gusting 3 15.0
2014-Dec-17 16:42 232 2 gusting 5 15.0
2014-Dec-17 16:27 224 2 gusting 6 15.0
2014-Dec-17 16:12 232 4 gusting 6 14.4
2014-Dec-17 15:57 257 1 gusting 3 14.4
2014-Dec-17 15:42 277 14.4
2014-Dec-17 15:26 358 15.0
2014-Dec-17 15:11 287 14.4
2014-Dec-17 14:56 249 0 gusting 0 15.6
2014-Dec-17 14:41 246 0 gusting 1 16.1
2014-Dec-17 14:26 249 16.1
2014-Dec-17 14:11 204 2 gusting 4 16.7
2014-Dec-17 13:56 225 3 gusting 7 16.7
2014-Dec-17 13:41 215 1 gusting 6 17.2
2014-Dec-17 13:26 193 4 gusting 8 17.2
2014-Dec-17 13:11 212 5 gusting 7 17.2
2014-Dec-17 12:56 212 5 gusting 9 17.2
2014-Dec-17 12:41 216 5 gusting 9 17.8
2014-Dec-17 12:26 240 4 gusting 9 17.8
2014-Dec-17 12:11 215 5 gusting 8 17.8
2014-Dec-17 11:56 246 4 gusting 8 18.3
2014-Dec-17 11:41 215 4 gusting 11 18.9
2014-Dec-17 11:26 204 6 gusting 11 18.9
2014-Dec-17 11:11 187 8 gusting 17 20.0
2014-Dec-17 10:56 167 9 gusting 18 20.0
2014-Dec-17 10:41 195 7 gusting 13 20.6
2014-Dec-17 10:26 194 4 gusting 9 20.6
2014-Dec-17 10:11 167 5 gusting 10 20.6